Wind_Speed
6 6 6 5 6 6 5 6 6 6 6 6 7 7 8 9 9 9 10 11 12 13 14 14 15 16 17 18 19 19 20 20 21 22 22 22 23 24 24 25 25 26 26
6 6 6 5 5 5 6 6 6 6 6 6 7 7 8 9 9 10 11 11 12 13 14 15 16 17 17 18 19 20 20 21 22 23 23 24 24 25 26 26 26 27 27
6 5 5 5 5 5 5 6 6 6 7 7 7 8 8 9 9 10 11 12 13 13 14 15 16 17 18 19 20 20 21 22 23 23 24 24 25 25 25 26 26 27 27
6 5 5 5 5 5 5 5 6 7 7 7 8 8 9 9 10 11 12 12 13 14 15 15 16 17 18 18 19 20 21 21 22 23 23 24 24 25 25 25 26 26 27
6 5 5 5 5 5 5 6 6 7 7 8 8 9 9 10 10 11 12 12 13 15 16 16 17 17 18 18 19 19 20 21 21 22 23 23 24 24 25 26 26 27 27
6 6 5 5 5 6 6 6 7 7 8 8 9 9 10 10 11 12 12 13 14 15 16 17 17 18 18 19 19 20 21 21 22 23 23 24 24 25 25 26 26 27 27
7 6 6 6 6 6 7 7 8 8 9 9 9 10 10 11 12 13 14 14 15 16 17 17 18 18 18 19 20 20 21 21 22 23 23 24 25 25 26 26 27 27 27
8 7 7 7 7 7 8 8 8 9 9 9 10 10 11 12 13 14 15 15 16 16 17 17 18 18 19 19 20 20 21 22 22 23 24 24 25 26 26 27 27 28 28
9 8 8 8 8 8 8 9 9 9 9 9 10 11 12 13 14 14 15 15 16 16 17 18 18 18 19 19 20 21 22 22 23 23 24 25 25 26 26 27 28 28 29
10 10 9 9 9 9 9 9 10 10 10 10 11 12 13 13 14 15 15 15 16 17 18 18 18 19 19 19 20 21 22 23 23 24 25 25 26 26 27 27 28 28 29
11 11 10 10 10 10 10 10 10 11 11 11 12 12 13 13 14 15 16 16 17 18 18 18 19 19 20 20 20 21 22 23 23 24 25 25 26 27 27 28 28 29 30
13 13 12 12 12 11 11 11 11 11 12 12 13 13 13 14 15 15 16 17 18 18 19 19 19 20 20 21 21 22 22 23 24 25 25 26 27 27 28 28 29 30 30
14 14 14 13 13 13 12 12 12 12 13 13 14 14 15 15 16 16 17 18 18 19 19 20 20 20 21 21 22 23 23 24 24 25 26 26 27 28 28 29 29 30 31
16 16 15 15 14 14 14 14 14 14 14 14 15 15 16 17 17 17 18 18 19 19 20 21 21 21 22 22 23 23 24 24 25 26 26 27 27 28 29 29 30 30 31
17 17 16 16 16 15 15 15 15 15 16 16 16 17 17 18 18 18 19 19 20 20 21 21 22 22 22 23 23 24 24 25 25 26 27 28 28 29 29 30 30 31 32
18 18 18 18 17 17 17 17 17 17 17 17 18 18 18 19 19 19 20 20 21 21 22 22 22 22 23 24 24 25 25 25 26 27 27 28 29 29 30 31 31 32 32
20 20 20 20 19 19 19 18 19 19 19 19 19 20 20 20 21 21 22 22 22 23 23 23 23 24 24 24 25 25 25 26 27 27 28 29 29 30 31 31 32 32 33
22 22 22 22 21 21 21 20 20 20 21 21 21 22 22 22 22 23 23 23 23 24 24 24 24 25 25 25 26 26 26 27 28 28 29 30 30 31 31 32 33 33 34
24 24 23 23 23 23 22 22 22 22 22 23 23 24 24 24 24 24 25 25 25 25 25 26 26 26 26 26 27 27 27 27 28 29 30 30 31 32 32 33 34 34 35
26 26 25 25 25 25 25 24 24 24 24 24 24 25 25 25 25 26 26 26 26 26 27 27 27 27 27 28 28 28 28 28 29 30 31 32 32 33 34 34 35 36 36
29 28 28 27 27 27 27 27 26 26 25 25 25 26 26 26 26 27 27 27 27 27 28 28 28 28 29 29 29 29 29 30 30 31 32 33 34 35 35 36 37 37 38
31 30 30 29 29 29 29 28 28 27 27 27 27 27 27 27 28 28 28 28 28 29 29 29 30 30 30 30 30 30 30 30 32 32 33 34 35 36 37 37 38 39 40
33 32 32 32 31 30 30 30 29 29 29 28 28 28 28 29 29 29 29 29 29 30 30 30 30 31 31 31 32 32 32 32 33 33 34 35 36 37 38 38 39 40 41
36 35 34 33 33 32 31 31 30 30 30 30 30 30 30 30 30 30 30 30 30 31 31 31 32 32 32 32 33 33 34 34 34 34 35 36 37 38 39 40 41 42 43
37 37 36 35 35 34 33 32 32 32 31 31 31 31 31 31 32 32 32 32 32 32 32 33 33 33 34 34 34 35 35 36 36 37 37 37 39 39 40 41 42 43 44
38 37 37 37 36 36 35 34 34 33 33 33 32 32 32 33 33 33 33 33 33 33 33 34 34 35 35 35 36 36 37 37 38 39 39 39 40 40 41 42 43 45 46
Wind_Direction
267 270 270 268 274 277 276 276 280 283 286 286 287 289 292 294 296 298 299 299 299 299 300 300 301 300 299 298 298 297 297 296 295 294 293 292 291 290 290 289 289 288 287
263 266 269 271 274 274 272 273 279 284 285 286 289 292 294 295 296 298 300 301 301 301 302 302 303 302 301 300 299 298 297 296 296 295 293 293 291 290 290 289 288 287 287
259 262 267 273 277 278 274 273 278 283 287 290 292 294 295 296 298 299 301 302 303 304 304 304 304 304 304 303 302 301 300 298 297 296 295 294 293 292 292 292 291 290 289
252 257 264 272 279 283 280 274 276 281 284 287 289 291 293 294 298 300 302 304 305 306 306 306 306 306 305 304 304 303 302 301 300 300 299 298 296 295 295 294 293 292 290
248 250 256 269 278 282 282 276 277 281 284 286 288 291 292 295 299 302 303 304 305 305 306 306 306 307 306 306 305 305 305 303 302 301 301 301 299 298 296 295 294 293 292
242 244 249 263 275 280 280 278 279 282 285 286 288 291 294 297 299 300 302 303 304 304 304 305 306 308 308 309 308 307 306 305 305 304 303 303 301 300 298 297 296 295 294
239 242 249 259 271 281 280 277 277 281 283 285 287 291 295 296 298 300 301 301 302 303 304 305 307 308 309 309 309 309 308 307 307 306 305 305 303 302 300 299 298 297 295
238 242 250 260 269 277 279 278 278 281 283 286 289 292 295 297 299 300 300 301 303 304 305 307 308 308 309 309 309 309 309 309 308 307 306 305 304 303 302 300 299 298 297
239 243 252 260 268 274 278 280 280 281 284 287 291 292 293 295 298 300 302 303 304 305 306 307 307 308 309 309 309 310 310 309 309 308 307 307 305 304 303 301 300 299 298
242 245 250 258 267 272 276 278 279 280 283 286 290 292 294 295 297 299 302 303 304 305 305 306 307 308 309 310 311 311 311 310 309 309 308 307 306 305 304 303 301 300 299
246 248 253 260 266 272 276 277 279 280 282 285 289 293 295 296 297 299 301 301 303 304 305 306 307 308 309 310 311 311 311 311 310 309 309 308 308 307 306 305 304 302 301
247 251 256 261 265 270 274 277 279 280 280 283 288 292 294 296 298 299 301 301 303 304 304 305 306 308 309 310 310 310 310 311 311 310 310 309 309 308 307 307 305 304 303
247 252 258 262 265 269 272 275 277 279 280 283 287 290 292 295 297 298 300 301 302 304 304 305 306 307 308 309 310 309 310 311 311 310 310 310 310 310 309 308 306 305 304
248 252 257 261 265 267 270 273 275 277 280 283 285 288 292 294 295 297 300 301 302 303 304 305 306 307 308 308 309 309 309 310 310 310 309 310 310 310 309 308 307 306 305
249 252 255 259 263 266 269 271 274 276 279 283 285 287 290 292 294 297 299 300 301 302 302 303 305 306 306 307 308 308 308 309 308 308 308 309 309 309 309 308 308 307 306
251 251 252 256 260 263 266 270 273 276 278 282 285 287 289 291 293 295 297 298 299 300 300 301 303 303 304 305 306 306 307 307 308 308 308 309 309 309 309 309 308 307 306
251 252 252 254 258 262 265 268 272 275 278 280 282 285 288 290 292 293 295 297 298 298 299 300 301 301 302 303 305 305 306 306 307 308 308 309 309 309 309 309 308 307 306
252 253 254 255 258 262 264 267 271 274 278 280 281 284 286 288 290 291 293 294 296 296 297 298 299 300 302 303 303 304 304 305 306 307 307 308 308 308 309 308 308 307 306
252 254 255 257 259 261 263 265 269 273 276 279 281 284 285 287 289 290 291 292 294 295 295 296 297 299 300 301 302 302 302 303 305 305 306 307 307 307 308 308 307 306 306
253 254 256 257 259 261 262 264 268 272 275 278 280 283 284 286 287 288 289 290 292 293 293 294 295 296 297 299 300 300 300 302 303 304 305 306 306 306 306 306 306 305 305
253 255 256 257 258 261 263 265 268 271 275 277 279 281 282 284 286 287 288 289 291 291 292 292 293 295 296 297 297 298 299 300 302 303 304 304 304 305 305 305 305 304 304
254 255 257 258 259 261 263 266 268 270 273 275 277 279 281 283 284 286 287 287 289 290 290 291 292 293 294 295 296 296 296 298 300 302 303 304 304 304 303 304 304 303 303
255 256 257 258 260 261 262 265 267 270 273 274 276 278 280 282 283 284 285 286 287 288 289 289 290 292 293 294 294 295 296 296 298 300 301 302 302 302 302 302 302 302 302
255 256 256 257 259 260 261 264 266 270 272 273 275 277 279 281 282 283 283 284 286 287 287 288 289 291 292 293 293 294 295 296 297 299 300 300 301 301 301 301 301 301 301
254 255 256 256 257 259 261 262 265 268 270 273 275 277 278 280 281 281 282 283 285 286 287 287 288 290 291 292 292 293 294 296 297 298 299 300 300 301 301 301 301 301 301
252 254 255 256 257 258 260 262 264 267 269 272 275 276 278 279 280 280 281 282 283 285 286 286 287 289 290 291 292 293 294 295 296 298 299 299 300 300 301 301 301 301 301
Height
5872 5871 5871 5871 5871 5871 5871 5871 5871 5871 5871 5871 5871 5870 5870 5870 5869 5869 5868 5868 5867 5866 5865 5864 5863 5862 5861 5860 5858 5857 5856 5854 5853 5852 5851 5849 5848 5846 5845 5844 5843 5841 5840
5870 5870 5870 5870 5870 5870 5870 5870 5869 5869 5869 5869 5869 5869 5869 5868 5868 5867 5866 5865 5865 5864 5863 5861 5860 5859 5858 5856 5855 5854 5852 5851 5849 5848 5847 5845 5844 5842 5841 5840 5838 5837 5836
5869 5869 5868 5868 5868 5868 5868 5868 5868 5868 5868 5868 5868 5868 5867 5867 5866 5865 5864 5863 5862 5861 5860 5859 5858 5856 5855 5853 5852 5850 5849 5847 5845 5844 5842 5841 5839 5838 5836 5835 5833 5832 5831
5867 5867 5867 5867 5867 5867 5867 5867 5867 5867 5867 5867 5866 5866 5865 5865 5864 5863 5862 5861 5860 5859 5857 5856 5855 5853 5852 5850 5849 5847 5845 5843 5841 5840 5838 5837 5835 5833 5832 5830 5828 5827 5826
5865 5865 5865 5866 5866 5866 5866 5866 5865 5865 5865 5865 5865 5864 5864 5863 5862 5861 5860 5859 5858 5856 5855 5853 5852 5850 5849 5847 5845 5844 5842 5840 5838 5836 5834 5832 5831 5829 5827 5825 5824 5822 5820
5863 5864 5864 5864 5864 5864 5864 5864 5864 5864 5863 5863 5863 5862 5861 5861 5860 5859 5858 5857 5855 5854 5852 5851 5849 5847 5846 5844 5842 5840 5838 5836 5834 5832 5830 5828 5826 5824 5822 5821 5819 5817 5815
5861 5862 5862 5862 5862 5862 5862 5862 5862 5862 5861 5861 5861 5860 5859 5859 5858 5857 5855 5854 5852 5851 5849 5847 5846 5844 5842 5841 5839 5836 5834 5832 5830 5828 5826 5824 5822 5820 5818 5816 5814 5812 5810
5859 5860 5860 5860 5860 5860 5860 5860 5860 5860 5859 5859 5858 5857 5857 5856 5855 5854 5853 5851 5850 5848 5846 5844 5843 5841 5839 5837 5835 5833 5831 5828 5826 5824 5822 5820 5818 5815 5813 5811 5809 5807 5805
5857 5857 5858 5858 5858 5858 5858 5858 5858 5857 5857 5856 5856 5855 5854 5853 5852 5851 5850 5848 5846 5845 5843 5841 5839 5838 5836 5834 5831 5829 5827 5825 5822 5820 5818 5815 5813 5811 5808 5806 5804 5801 5799
5854 5855 5855 5856 5856 5856 5855 5855 5855 5855 5854 5854 5853 5852 5851 5850 5849 5848 5847 5845 5843 5842 5840 5838 5836 5834 5832 5830 5828 5825 5823 5821 5818 5816 5813 5811 5808 5806 5803 5801 5798 5796 5794
5852 5852 5853 5853 5853 5853 5853 5853 5852 5852 5852 5851 5850 5850 5848 5847 5846 5845 5844 5842 5840 5838 5836 5834 5832 5830 5828 5826 5824 5821 5819 5816 5814 5811 5809 5806 5804 5801 5798 5796 5793 5791 5788
5849 5849 5850 5850 5850 5850 5850 5850 5850 5849 5849 5848 5848 5847 5845 5844 5843 5842 5840 5838 5837 5835 5833 5831 5829 5827 5824 5822 5820 5817 5815 5812 5809 5807 5804 5801 5799 5796 5793 5790 5788 5785 5782
5845 5846 5846 5847 5847 5847 5847 5847 5847 5846 5846 5845 5844 5843 5842 5841 5840 5838 5837 5835 5833 5831 5829 5827 5825 5823 5820 5818 5816 5813 5810 5808 5805 5802 5799 5797 5794 5791 5788 5785 5782 5779 5776
5841 5842 5843 5843 5843 5843 5843 5843 5843 5843 5842 5842 5841 5840 5839 5837 5836 5834 5833 5831 5829 5827 5825 5823 5821 5819 5816 5814 5811 5809 5806 5803 5800 5797 5795 5792 5789 5786 5783 5779 5776 5773 5770
5837 5838 5839 5839 5839 5840 5840 5840 5839 5839 5839 5838 5837 5836 5835 5833 5832 5830 5828 5827 5825 5823 5821 5819 5816 5814 5812 5809 5807 5804 5801 5798 5795 5792 5790 5787 5783 5780 5777 5774 5771 5767 5764
5832 5833 5834 5835 5835 5836 5836 5836 5835 5835 5835 5834 5833 5832 5831 5829 5828 5826 5824 5822 5820 5818 5816 5814 5812 5809 5807 5804 5802 5799 5796 5793 5790 5787 5784 5781 5778 5774 5771 5768 5764 5761 5758
5827 5828 5830 5830 5831 5831 5831 5831 5831 5831 5830 5829 5828 5827 5826 5825 5823 5821 5820 5818 5816 5814 5811 5809 5807 5805 5802 5800 5797 5794 5791 5788 5785 5782 5779 5775 5772 5769 5765 5762 5758 5755 5751
5822 5823 5824 5825 5826 5826 5826 5826 5826 5826 5825 5824 5823 5822 5821 5820 5818 5816 5815 5813 5811 5809 5806 5804 5802 5799 5797 5794 5792 5789 5786 5783 5780 5776 5773 5770 5766 5762 5759 5755 5751 5748 5744
5816 5817 5818 5819 5820 5820 5820 5821 5821 5820 5820 5819 5818 5817 5816 5814 5813 5811 5809 5807 5805 5803 5801 5799 5796 5794 5791 5789 5786 5783 5780 5777 5774 5770 5767 5763 5760 5756 5752 5748 5744 5741 5737
5810 5811 5812 5812 5813 5814 5814 5814 5814 5814 5814 5813 5812 5811 5810 5809 5807 5805 5803 5802 5800 5798 5795 5793 5791 5788 5786 5783 5780 5777 5774 5771 5767 5764 5760 5757 5753 5749 5745 5741 5737 5733 5729
5803 5804 5805 5806 5806 5807 5807 5808 5808 5808 5807 5807 5806 5805 5804 5802 5801 5799 5797 5795 5793 5791 5789 5787 5785 5782 5779 5777 5774 5771 5768 5764 5761 5757 5753 5750 5746 5741 5737 5733 5729 5725 5721
5795 5796 5797 5799 5799 5800 5801 5801 5801 5801 5801 5800 5799 5798 5797 5796 5794 5793 5791 5789 5787 5785 5782 5780 5778 5775 5773 5770 5767 5764 5762 5759 5754 5750 5746 5742 5738 5734 5730 5725 5721 5717 5712
5787 5789 5790 5791 5792 5792 5793 5793 5793 5793 5793 5793 5792 5791 5790 5788 5787 5785 5784 5782 5780 5778 5775 5773 5771 5768 5766 5763 5760 5757 5754 5752 5748 5744 5739 5735 5730 5726 5721 5717 5713 5708 5703
5778 5780 5781 5783 5784 5784 5785 5785 5786 5786 5786 5785 5784 5784 5782 5781 5780 5778 5776 5774 5772 5770 5768 5766 5763 5761 5758 5755 5752 5749 5746 5743 5740 5737 5733 5728 5723 5718 5713 5709 5704 5699 5694
5769 5771 5773 5774 5775 5776 5777 5777 5778 5778 5778 5777 5777 5776 5774 5773 5772 5770 5768 5766 5764 5762 5760 5758 5755 5753 5750 5747 5744 5741 5738 5734 5730 5727 5725 5720 5715 5710 5705 5700 5695 5690 5685
5760 5761 5763 5765 5766 5767 5768 5769 5769 5770 5769 5769 5768 5767 5766 5765 5764 5762 5760 5758 5756 5754 5752 5749 5747 5744 5742 5739 5736 5732 5729 5726 5722 5718 5715 5711 5707 5702 5696 5691 5685 5680 5674